Location: Aix-en-Ergny
(50.5839°N, 1.9996°E)
Time: 07:42:25
(UTC+00:00)

Cosmos 1437 Rocket - Pass Details

Date: 23 October 2019
Orbit: 507 x 563 km, 81.2° (Epoch: 14 November)

Event Time Altitude Azimuth Distance (km) Brightness Sun altitude
Rises 05:41:22 0° 226° (SW) 2,605 5.9 -7.9°
Reaches altitude 10° 05:43:51 10° 242° (WSW) 1,724 4.9 -7.5°
Maximum altitude 05:46:49 22° 294° (WNW) 1,169 3.9 -7.1°
Drops below altitude 10° 05:49:49 10° 346° (NNW) 1,740 5.1 -6.6°
Sets 05:52:20 0° 2° (N) 2,638 6.2 -6.2°
